Wind_Speed
48 49 49 50 48 45 43 42 40 38 37 37 37 34 31 27 24 21 18 16 15 13 13 13 13 13 14 16 18 16 10 6 6 5 6 9 11 11 11 9 8 8 5 2 3 5 8 11 13 13 14 14 16 20 24 27 28 29 31 33 36 37 38 38 38 37 37 36 36 35 35 35 34 34 33 33 33 33 33 33 34 33 32 32 31
50 51 53 53 52 48 45 42 41 40 40 39 38 34 31 28 24 21 19 17 16 16 16 16 16 16 16 17 20 21 14 7 7 7 6 8 10 10 10 10 10 10 9 6 2 3 5 8 11 13 15 16 16 18 21 25 28 29 30 31 34 36 38 39 39 39 39 38 37 37 37 36 36 35 35 34 34 35 34 34 35 35 34 34 33
52 53 55 56 55 52 48 45 43 42 42 40 38 34 30 27 25 23 20 17 17 19 19 18 19 19 19 19 20 23 18 11 9 9 7 7 9 9 9 9 9 10 10 10 7 4 3 4 7 10 13 15 17 18 19 21 25 28 30 31 32 34 36 38 40 41 41 41 40 39 39 38 38 37 37 37 36 36 36 36 36 37 37 36 36
53 54 56 58 58 56 53 49 46 44 42 39 35 31 28 26 26 25 22 19 19 23 23 21 23 22 21 21 21 23 22 17 13 11 8 8 10 9 8 8 8 8 8 10 10 8 5 3 4 7 9 12 14 16 18 20 22 25 28 31 33 34 35 36 39 40 42 42 42 42 41 40 40 40 39 39 38 38 38 38 38 38 39 38 38
53 55 58 60 61 59 57 54 50 47 44 39 34 29 26 25 26 26 25 22 23 26 25 25 27 25 23 23 22 23 24 22 18 13 10 10 11 11 8 7 8 7 6 7 8 9 8 6 4 4 6 8 10 12 15 18 21 23 26 29 31 34 36 37 38 39 41 43 43 44 44 43 43 42 42 41 41 40 40 40 40 40 41 41 40
54 56 58 61 62 61 60 57 54 51 48 44 40 34 28 27 27 27 27 26 27 29 29 30 31 27 26 25 23 24 25 24 21 17 14 13 13 14 11 8 7 7 6 6 6 7 7 7 7 5 4 5 7 9 11 14 18 21 24 27 29 32 35 37 38 40 41 42 44 44 45 45 45 44 44 44 44 43 43 43 43 43 43 43 43
54 56 57 60 62 62 60 59 57 55 52 49 47 41 35 31 30 30 30 29 29 31 32 34 34 30 29 28 25 25 26 25 24 21 19 17 16 16 15 11 9 9 8 7 6 6 7 7 7 6 5 4 5 7 9 11 13 16 20 24 27 30 32 34 37 39 41 42 43 44 45 46 47 46 46 46 46 46 45 45 46 46 45 45 45
53 55 56 58 61 62 61 59 58 56 54 52 51 47 40 36 34 33 33 32 31 33 34 35 35 31 29 28 25 24 26 27 25 23 22 21 19 18 17 15 12 11 10 9 8 7 7 8 7 7 6 6 6 6 7 8 9 11 14 18 21 25 29 31 34 36 38 40 42 44 45 46 47 48 48 48 48 48 48 48 48 48 48 48 48
50 52 54 55 58 60 60 59 58 57 56 54 52 48 43 39 37 35 34 34 33 34 34 34 34 31 30 29 26 26 29 30 26 24 25 24 22 20 19 18 15 13 12 12 11 10 9 9 9 8 8 8 8 8 8 8 8 9 10 13 16 19 23 26 29 32 35 37 39 42 44 45 47 48 49 49 49 49 49 50 50 50 50 51 51
45 48 50 51 54 56 57 57 57 56 55 54 51 47 43 40 39 38 37 35 34 34 34 34 34 33 32 29 27 28 31 30 27 27 26 25 24 22 21 19 18 16 14 14 15 14 13 12 11 10 10 10 10 10 10 10 10 9 9 11 13 16 18 21 24 27 30 33 36 38 41 43 45 47 48 49 50 51 51 52 52 53 52 53 53
39 43 45 47 49 52 53 54 54 53 53 51 49 45 38 31 33 38 39 37 35 35 35 34 35 35 34 32 31 31 32 30 29 30 29 29 28 25 23 21 19 18 17 16 17 17 16 15 14 15 14 13 12 12 12 12 12 12 12 12 13 14 15 17 19 22 24 27 29 32 35 39 41 43 46 48 49 51 52 53 54 54 54 55 55
32 37 40 43 45 47 50 51 51 51 51 49 47 45 38 27 27 36 40 38 37 36 35 35 37 38 35 33 33 32 33 32 31 32 33 33 30 28 26 24 22 21 19 18 17 19 19 18 18 19 18 17 16 15 15 15 14 14 15 15 15 15 15 16 17 18 20 22 24 26 28 31 33 37 40 43 46 49 51 53 54 55 55 56 57
27 31 36 39 42 44 46 48 50 49 49 49 48 49 45 37 32 34 37 38 38 38 38 36 37 38 35 33 33 32 33 33 33 33 34 34 31 30 29 27 25 24 22 20 19 20 22 23 23 23 22 20 20 19 17 17 17 17 17 18 19 19 18 17 17 17 17 18 20 22 23 24 26 28 31 34 37 41 45 47 50 52 54 56 58
27 29 32 36 40 42 44 47 48 49 49 49 49 50 49 46 41 36 33 33 34 36 36 34 33 34 34 35 35 35 34 35 35 35 35 34 34 33 31 29 28 27 25 24 23 22 23 25 26 26 25 24 23 22 21 20 19 19 20 21 22 22 21 20 19 17 17 17 18 20 20 22 23 24 24 26 29 33 35 38 41 44 47 51 54
27 29 32 34 37 41 43 45 47 49 49 49 50 49 48 47 47 43 37 31 30 33 34 32 32 33 35 36 37 38 36 36 37 38 37 37 37 36 34 31 30 29 28 28 27 26 26 27 28 28 28 27 26 25 25 23 22 22 23 23 23 24 24 24 22 20 19 19 20 21 21 21 22 24 24 25 27 29 31 34 36 37 40 44 47
30 29 31 33 36 39 41 44 46 48 49 50 50 50 49 46 47 47 42 34 33 35 35 34 34 36 38 39 40 41 39 37 37 39 39 39 40 39 36 33 32 32 31 30 29 28 29 30 31 31 30 30 29 28 28 27 27 27 27 26 25 25 26 26 25 23 22 21 22 24 25 24 22 24 24 24 25 27 30 34 35 34 35 38 41
32 32 31 32 34 37 39 42 44 47 49 50 50 50 50 48 46 46 43 39 38 39 38 38 39 40 41 42 43 43 41 39 38 39 40 41 42 41 38 35 34 34 33 32 31 32 32 33 33 33 32 33 33 32 32 31 31 31 31 29 29 29 28 27 27 26 25 25 25 26 27 27 25 24 24 23 23 24 26 29 30 30 33 36 38
30 33 33 32 33 35 38 40 42 45 49 50 51 52 50 47 45 44 41 39 39 40 40 41 42 43 43 44 45 44 41 40 39 40 41 42 42 42 40 38 36 36 36 34 34 35 35 35 35 36 37 37 36 36 35 35 34 33 31 31 33 34 32 30 29 28 28 28 28 28 29 29 29 28 27 26 24 23 23 24 24 25 29 33 34
28 31 33 33 33 34 37 39 40 43 48 51 53 53 50 46 45 43 40 38 38 39 40 41 42 44 46 47 47 45 43 42 41 41 41 42 43 43 42 41 39 38 38 38 38 38 37 37 38 39 41 41 39 39 39 39 37 35 32 32 36 39 36 32 31 30 30 30 30 30 31 31 32 33 33 32 30 27 26 26 24 24 26 28 30
26 28 32 34 34 34 35 37 39 42 46 50 53 53 49 45 46 43 37 35 37 37 37 39 43 46 48 48 48 47 46 45 43 42 42 42 43 43 43 42 41 40 40 41 42 42 41 40 41 43 44 44 42 41 42 42 40 38 35 34 37 41 40 37 34 33 32 31 31 31 31 33 35 37 37 36 35 33 31 30 28 28 28 30 31
25 26 28 32 35 35 35 36 38 40 43 48 51 52 49 47 48 46 39 33 35 35 34 37 43 47 48 48 48 48 47 46 45 44 44 43 43 43 43 43 43 42 42 43 45 45 45 44 45 46 46 45 44 44 45 44 42 41 40 39 40 43 44 42 40 37 36 35 34 34 34 36 38 38 38 39 39 38 36 34 33 32 31 32 34
27 26 26 28 32 35 36 37 38 39 42 46 49 51 50 49 50 51 47 41 39 40 39 38 41 44 46 46 46 46 45 45 46 47 47 47 47 46 45 45 45 45 45 46 47 47 47 47 48 49 48 46 47 47 46 46 45 43 43 44 45 46 47 46 44 43 41 39 37 37 38 39 40 41 41 41 41 39 38 38 37 36 36 36 37
30 29 28 28 29 33 36 38 39 39 40 44 47 49 50 50 51 54 54 52 49 47 46 43 42 43 45 45 45 44 45 47 48 49 49 50 49 47 46 47 48 48 49 49 49 49 49 50 51 53 52 52 52 51 50 49 48 47 47 48 48 48 49 48 48 47 46 44 41 40 41 41 42 43 43 42 40 39 39 39 39 39 40 41 42
31 31 31 31 30 31 34 38 40 40 40 41 45 48 50 51 52 53 55 56 55 53 51 48 46 46 46 45 44 42 42 44 46 46 46 47 46 46 47 48 50 50 50 50 50 49 49 50 51 52 53 53 55 55 54 53 51 49 50 51 51 50 50 49 49 49 49 48 45 44 44 44 45 46 46 45 43 41 41 41 41 42 42 43 45
31 32 32 32 32 32 33 35 38 41 42 41 42 45 48 51 53 54 55 56 57 57 55 53 51 49 47 44 41 39 40 42 43 44 46 46 46 47 48 50 51 52 53 53 53 52 51 52 53 54 54 54 55 55 55 55 54 53 53 53 52 51 50 50 49 50 50 50 47 47 50 50 50 50 51 51 50 47 46 46 46 46 45 46 48
31 32 33 33 34 34 34 35 37 39 42 42 42 42 43 46 49 52 53 55 56 57 57 57 57 56 54 51 47 46 48 50 50 49 50 51 50 50 50 49 49 49 50 51 51 52 52 52 53 54 54 54 54 55 55 56 56 55 55 54 53 52 51 51 52 52 52 53 52 53 55 55 55 55 55 56 56 56 55 54 53 52 50 49 50
31 32 34 35 35 36 36 36 37 38 40 42 43 42 41 42 43 46 48 50 51 53 54 55 57 58 59 59 59 59 60 60 59 58 56 56 55 53 51 50 47 46 46 45 43 44 46 47 48 49 50 51 52 52 53 55 55 55 55 54 54 53 54 54 55 56 57 58 58 59 59 60 60 61 60 59 60 61 61 60 60 59 58 57 55
30 32 33 35 36 37 38 38 39 39 40 41 43 43 43 42 42 43 43 45 46 47 48 49 51 52 53 55 57 59 60 59 59 58 57 58 59 58 56 53 50 49 49 48 45 44 46 48 49 50 52 54 55 54 54 54 55 56 56 55 56 56 57 58 58 59 60 61 63 64 65 65 65 64 63 63 63 63 63 63 63 63 63 63 62
28 29 31 33 34 36 37 38 39 40 41 41 43 44 44 44 44 44 44 44 45 46 46 47 48 48 49 50 51 52 52 53 53 53 53 54 56 59 60 60 59 58 58 56 53 52 52 55 57 57 58 60 62 62 61 60 60 60 60 60 61 62 63 63 64 65 66 67 68 69 70 70 69 68 67 67 67 66 66 65 65 64 65 65 66
28 28 29 30 31 32 34 35 37 38 39 40 41 43 44 45 45 45 45 45 46 46 47 47 48 48 49 50 50 50 51 51 51 51 51 51 52 54 57 60 62 65 66 66 63 60 59 60 62 64 64 65 66 67 68 68 68 67 68 68 69 69 70 70 70 70 71 71 71 72 72 72 71 71 70 70 70 70 69 69 68 68 68 68 68
29 28 28 29 29 30 30 31 33 35 36 37 38 40 41 42 44 45 45 45 45 46 46 47 48 49 49 50 51 51 51 52 52 52 52 53 53 53 53 55 57 61 64 65 66 66 65 65 66 68 69 70 70 71 72 72 72 73 73 73 73 73 72 72 71 71 71 71 72 72 72 72 72 72 72 72 72 72 72 72 71 71 72 72 71
30 30 30 29 29 29 29 29 30 31 32 33 34 35 36 37 39 41 42 44 44 45 46 46 47 48 49 49 50 51 51 52 52 53 53 53 53 53 53 54 54 56 57 59 61 63 64 65 66 67 68 69 70 70 70 70 70 71 71 71 71 71 71 71 71 71 71 72 72 72 73 73 73 74 73 73 73 73 74 74 75 75 75 75 75
33 32 32 31 31 30 29 29 29 29 29 30 30 30 30 31 32 33 35 37 39 41 43 44 45 46 47 48 49 49 50 51 51 52 52 52 52 53 53 53 53 54 55 56 57 59 60 61 63 64 65 66 66 67 67 68 68 69 70 70 71 71 72 73 73 74 75 75 76 76 77 77 77 77 78 77 77 78 78 79 79 79 79 79 79
36 35 34 34 33 33 32 30 30 29 29 29 29 29 28 28 28 28 29 30 31 33 35 37 39 40 41 43 44 45 46 47 48 49 49 50 51 51 52 52 52 53 54 55 56 57 58 60 62 63 65 66 67 68 69 69 70 71 72 72 73 74 75 76 76 77 77 78 78 78 78 78 78 79 79 79 80 80 81 81 82 82 82 82 83
39 38 37 36 36 35 34 33 32 31 30 30 29 29 29 28 27 27 27 27 28 28 30 31 32 33 34 35 36 37 38 40 41 41 42 43 43 44 45 46 47 49 50 51 52 54 55 56 58 59 61 62 64 65 67 68 69 69 70 70 71 72 73 73 74 74 75 75 75 75 75 75 75 75 76 76 76 77 77 78 78 79 79 80 81
42 41 40 39 38 38 37 36 35 34 33 32 32 31 31 30 29 29 29 29 29 30 30 30 30 31 31 32 33 34 35 35 36 36 36 37 37 38 39 41 42 44 45 47 48 50 51 53 54 55 57 58 59 61 62 62 63 64 64 65 65 65 66 66 67 67 68 68 68 69 69 69 70 70 70 70 70 70 71 71 71 71 72 72 73
45 44 42 41 41 40 40 39 38 37 37 36 35 34 33 32 32 32 32 33 33 33 33 33 32 32 32 33 33 34 34 34 34 34 34 35 35 36 38 39 40 41 42 44 45 47 49 51 52 54 55 57 58 59 60 60 61 61 61 61 60 60 60 60 59 59 59 59 60 60 60 60 61 61 61 61 61 61 62 62 62 62 62 63 63
48 47 46 44 43 42 42 41 40 40 39 38 37 37 36 36 35 35 35 35 35 35 35 35 34 33 33 33 32 32 32 32 32 32 33 33 34 34 35 35 35 37 38 40 42 43 45 46 48 50 51 52 53 54 55 55 55 55 55 54 54 53 53 52 52 52 51 51 51 51 51 51 51 51 51 51 51 51 51 51 52 52 53 53 53
49 49 48 47 45 43 43 43 43 43 42 41 40 39 39 38 38 38 38 37 37 37 36 36 34 33 33 31 31 31 31 31 31 31 31 31 31 31 31 32 34 35 37 38 38 39 39 40 41 42 43 44 44 45 45 46 46 46 46 46 46 45 45 44 44 43 43 43 43 43 43 42 42 42 42 42 42 42 43 44 45 46 47 48 48
51 51 51 49 47 45 45 45 45 44 43 42 41 41 40 40 40 39 39 39 38 37 36 35 34 33 32 32 31 32 31 31 30 30 29 29 29 29 31 32 32 31 31 30 30 31 31 32 32 32 33 33 34 35 36 37 38 38 39 39 38 37 37 36 36 35 35 35 35 34 34 34 34 35 35 36 36 37 38 39 41 42 43 44 45
54 53 53 52 50 48 47 46 45 44 42 41 41 41 40 40 39 39 39 38 38 37 36 35 33 33 33 33 33 33 32 31 31 30 29 28 28 29 28 27 25 23 22 22 22 23 23 24 24 24 24 26 27 28 30 31 32 33 33 32 31 29 28 27 27 27 27 28 28 29 29 30 31 32 32 33 34 35 36 36 37 37 38 39 40
55 55 55 54 53 51 49 48 47 45 43 41 41 40 39 39 39 39 39 39 38 37 36 35 34 34 34 35 35 34 33 32 31 30 30 29 28 28 26 24 22 21 21 20 21 21 21 21 22 22 23 23 24 25 26 27 28 28 27 25 23 23 23 24 25 26 27 28 29 30 30 31 32 33 34 34 35 35 35 36 36 36 37 37 38
56 56 56 56 56 55 53 51 50 48 46 43 42 41 38 36 35 35 37 39 40 39 38 36 35 35 35 36 35 35 35 33 33 32 31 30 29 29 28 26 24 23 22 21 21 21 22 23 23 24 24 25 25 25 25 24 24 23 22 22 23 25 26 28 30 31 32 33 34 34 35 36 37 38 38 39 39 39 39 39 39 39 38 38 39
53 54 55 56 56 56 55 53 52 52 50 48 45 43 40 37 34 32 31 33 36 38 39 38 37 37 37 36 36 36 35 35 35 35 34 32 31 32 32 30 28 26 25 24 23 22 23 24 25 26 26 26 26 26 26 25 24 24 24 26 28 30 31 32 34 35 35 36 37 38 39 40 41 42 43 44 44 44 44 44 44 44 43 43 42
50 51 52 53 54 55 54 53 53 54 54 52 50 47 44 42 38 35 32 31 31 33 35 37 37 37 37 36 35 35 35 36 37 37 35 33 34 35 35 33 32 32 31 29 27 26 25 26 27 28 28 27 27 26 26 26 26 27 27 28 30 31 33 34 35 36 37 38 39 40 42 43 44 45 46 47 48 48 48 48 49 48 48 48 47
49 49 50 50 50 51 51 52 53 55 56 55 54 51 49 47 44 40 36 34 32 32 32 33 33 34 34 33 33 34 35 35 36 35 34 34 36 37 37 36 36 36 35 34 32 32 31 30 29 30 30 30 30 29 29 29 29 29 30 30 31 32 33 35 36 37 39 40 41 42 43 45 46 48 49 50 50 51 51 51 51 51 51 52 52
48 49 50 49 48 47 48 50 51 53 55 56 56 54 53 52 50 46 42 39 36 34 34 33 33 32 32 32 31 32 33 34 35 34 33 35 37 39 39 39 39 39 37 37 37 38 37 35 33 33 33 34 34 34 34 34 34 34 35 35 35 36 36 36 37 38 39 41 42 44 45 46 48 50 52 52 52 52 52 52 52 52 53 53 54
50 50 51 51 49 47 47 48 49 50 52 53 53 52 52 52 52 51 49 46 43 40 37 36 35 34 33 33 32 31 32 34 35 34 35 37 40 41 42 42 42 40 39 40 41 42 41 39 38 38 37 37 38 38 38 38 38 38 39 39 40 40 40 40 40 40 41 42 43 45 46 48 50 52 53 53 53 53 53 52 52 52 53 53 54
54 53 53 53 51 49 49 50 50 50 50 49 48 48 48 49 49 49 49 49 47 44 42 40 38 37 36 35 35 34 35 36 36 37 39 41 43 44 44 44 43 42 43 44 45 45 44 43 43 42 41 41 41 41 41 41 41 41 42 42 43 44 44 45 44 44 44 44 45 46 48 51 53 54 53 53 52 52 52 52 52 52 52 53 54
58 56 56 55 54 52 52 52 53 52 51 50 48 46 46 46 46 47 48 48 47 45 44 42 41 40 39 38 38 38 38 39 40 41 42 44 45 46 46 46 45 46 46 47 47 47 47 46 46 46 45 44 44 44 44 44 44 44 44 45 45 46 48 48 48 48 47 47 48 48 50 52 54 54 54 52 51 51 51 51 50 51 51 52 52
61 60 58 58 57 56 54 54 53 50 49 48 47 46 45 45 45 46 47 47 47 46 44 43 42 41 41 41 41 41 41 42 43 44 46 47 48 49 49 49 49 49 49 49 49 49 49 49 50 49 48 47 47 47 46 47 47 47 47 47 48 49 50 51 51 50 50 50 50 50 51 53 55 55 54 52 50 49 49 50 50 50 51 52 52
Wind_Direction
211 208 204 198 198 202 203 204 204 201 199 197 196 198 200 202 203 206 206 210 222 237 248 258 269 275 278 288 291 287 280 278 284 302 342 349 347 357 11 28 39 34 22 338 269 255 246 241 240 239 236 233 227 222 220 220 220 221 222 224 225 226 227 229 230 231 232 233 234 234 235 236 237 238 240 242 243 244 244 243 244 244 243 242 243
210 207 204 199 197 199 201 203 203 201 199 198 198 199 201 204 206 208 206 207 221 235 247 257 261 266 272 278 285 286 278 268 273 279 311 333 333 341 353 4 22 33 36 33 2 276 256 246 243 243 243 242 240 235 229 226 226 226 227 227 228 229 230 231 232 233 234 235 236 237 238 238 239 240 241 242 243 245 246 246 247 248 247 247 247
210 207 204 200 198 198 200 202 201 200 200 199 199 200 202 205 208 210 210 211 225 235 241 254 260 262 264 265 273 280 275 261 257 262 279 307 314 324 336 344 359 20 30 34 31 9 313 265 250 247 247 247 246 245 241 236 233 231 231 231 232 232 232 233 234 235 236 237 238 239 240 240 241 241 242 243 244 245 247 248 249 250 250 251 251
211 207 205 203 201 200 201 201 200 199 198 197 197 199 200 203 207 213 213 213 228 237 238 250 260 263 265 263 264 271 271 259 251 255 266 284 292 300 316 327 336 358 18 26 29 26 14 334 280 257 250 249 248 247 247 245 242 239 237 236 236 236 236 236 237 237 238 239 240 241 242 242 243 244 244 245 246 246 248 249 250 251 252 252 253
211 208 206 204 204 203 203 202 200 198 198 198 200 201 202 204 208 213 213 214 226 233 234 240 250 258 265 263 260 263 265 260 255 260 270 276 280 283 290 304 315 328 351 8 17 21 21 15 352 301 267 256 251 246 244 245 245 245 243 242 241 241 240 240 240 240 240 240 241 243 244 244 245 246 246 247 247 248 249 250 252 253 253 254 255
211 209 208 206 206 206 205 204 203 202 202 205 206 207 210 212 210 210 214 219 225 229 228 229 236 249 261 262 256 254 259 260 255 258 266 269 271 274 275 282 293 301 316 335 348 357 5 10 11 360 317 274 263 255 248 246 245 245 245 245 245 244 244 243 244 244 244 243 243 243 244 246 247 248 249 249 249 250 250 252 253 254 255 255 256
211 210 209 208 208 208 207 207 207 207 207 209 210 212 216 216 210 209 215 219 221 225 226 224 227 239 251 254 249 247 254 255 249 249 257 260 264 268 269 271 275 282 291 302 316 327 333 342 353 359 351 314 287 274 265 259 254 251 249 249 249 249 248 247 246 246 246 246 246 246 246 247 247 248 249 251 252 252 253 253 254 255 256 257 257
212 211 211 210 210 210 210 210 210 211 211 213 214 216 219 217 212 212 216 218 220 225 225 222 222 229 240 245 242 241 246 246 241 244 250 254 258 261 263 265 267 272 280 284 292 303 310 317 322 330 336 331 318 305 294 285 277 268 262 258 255 253 252 251 250 249 248 248 248 248 249 249 249 249 249 250 252 253 254 255 256 257 257 258 258
212 212 212 212 212 212 213 213 213 214 215 216 217 218 219 218 214 214 217 218 222 226 226 223 223 225 233 239 235 229 234 237 235 237 244 250 254 255 256 260 262 267 276 282 284 287 295 303 308 313 316 317 318 319 317 314 307 295 281 271 266 262 259 257 255 254 252 250 249 249 249 250 251 252 252 252 252 253 254 256 257 258 259 259 260
211 212 213 213 213 213 214 214 215 216 217 218 219 219 217 217 216 216 217 217 218 223 227 225 224 226 229 232 227 222 230 235 233 231 238 249 256 256 254 256 260 266 273 282 287 287 292 297 299 304 307 307 306 308 311 314 316 313 303 291 281 275 271 266 263 261 259 257 255 253 252 252 252 252 253 254 254 254 255 255 256 257 258 260 261
211 212 213 213 213 213 214 214 214 215 216 216 216 212 207 211 220 219 217 217 217 220 224 224 223 224 226 227 226 227 232 235 234 233 238 245 252 256 256 253 256 262 268 277 284 287 289 290 292 297 301 301 299 298 298 300 304 308 309 305 300 294 290 283 277 272 268 266 263 261 259 258 257 257 257 257 257 257 256 257 257 257 258 259 260
210 212 213 213 213 213 213 213 213 213 212 212 209 202 194 197 215 217 215 218 220 222 224 223 220 222 227 230 231 232 234 234 235 237 239 242 247 254 255 250 249 254 260 269 278 282 282 283 289 296 298 297 296 295 293 291 292 296 300 302 303 304 306 303 298 291 284 278 275 271 268 266 264 263 261 261 261 261 260 259 259 259 260 260 261
204 209 211 212 212 212 212 212 211 211 209 208 205 200 196 197 202 207 209 215 221 226 227 224 222 226 233 234 232 232 235 238 239 240 240 241 245 251 252 250 249 252 254 260 271 277 276 278 284 290 292 292 293 294 292 290 290 292 294 297 298 300 302 305 306 306 302 295 289 282 277 274 272 269 267 266 266 266 266 265 264 264 263 262 262
201 205 209 211 211 211 211 210 210 209 208 206 204 202 203 203 202 202 205 209 216 220 220 221 226 232 236 235 232 232 236 238 240 241 241 241 243 248 249 247 248 251 253 258 267 270 269 272 278 282 285 287 291 294 292 291 293 294 294 295 296 296 296 296 299 303 304 301 297 290 282 276 273 270 269 269 270 269 270 270 268 266 265 264 263
201 202 204 208 209 210 210 209 209 208 207 206 204 203 205 207 207 207 207 207 209 210 213 219 225 229 233 235 234 233 234 234 236 237 240 241 243 246 248 246 246 250 253 257 263 266 267 272 275 277 280 283 287 291 291 289 289 290 291 292 294 295 292 291 293 296 297 296 295 291 284 277 274 274 272 270 270 272 272 271 269 267 267 267 266
203 202 202 204 207 209 209 209 209 208 207 206 204 204 206 208 208 209 210 211 211 212 215 219 222 225 230 234 235 235 234 233 234 236 239 241 244 247 249 247 248 250 252 257 263 264 265 268 271 273 276 279 282 284 286 286 285 285 286 287 289 291 290 288 287 287 287 287 286 285 283 282 280 281 281 278 275 274 274 273 273 273 273 271 270
206 205 204 204 205 207 208 208 208 208 207 206 204 205 208 208 208 210 214 217 218 219 220 221 224 227 232 234 237 238 237 236 238 239 240 241 244 248 249 247 248 250 252 257 262 264 265 267 269 270 271 273 275 277 279 282 283 285 286 285 284 285 286 286 285 282 280 280 279 279 281 284 285 287 287 284 281 279 277 276 276 277 275 272 270
210 209 208 207 206 206 207 208 208 208 207 206 205 206 209 209 208 210 216 219 221 223 224 225 227 231 233 235 237 239 238 238 240 242 243 242 243 246 248 246 247 250 253 257 261 265 268 270 270 270 269 269 271 273 275 277 280 283 286 283 280 281 282 284 285 282 279 278 278 278 280 282 286 288 288 286 283 282 281 279 277 275 274 273 272
210 211 212 212 210 208 207 208 208 208 207 206 205 208 210 209 208 210 214 219 223 226 227 229 232 234 235 237 239 240 239 239 240 241 242 241 241 244 247 246 246 249 252 254 258 262 263 263 264 266 268 269 270 271 273 275 278 281 282 279 278 280 281 281 281 281 280 279 278 278 282 285 287 287 287 286 284 281 279 279 278 276 277 278 277
210 210 212 214 214 212 210 210 210 209 208 206 207 210 210 208 207 208 212 218 223 226 230 234 236 236 237 238 239 240 240 240 241 242 242 242 242 245 247 246 246 248 250 252 256 259 260 259 259 261 264 267 269 270 272 274 276 278 279 275 274 278 280 279 279 279 279 279 278 278 281 284 283 282 283 283 282 282 280 278 278 277 278 280 280
220 214 211 212 214 215 213 212 212 212 210 208 209 212 211 208 207 207 208 213 218 217 220 229 233 234 236 238 239 241 242 244 246 248 248 248 248 249 250 249 248 251 255 258 258 259 260 261 261 261 264 267 269 270 271 273 274 276 277 274 272 275 277 278 278 278 278 279 279 277 277 276 276 277 277 277 277 280 280 279 279 279 278 280 281
229 225 219 214 213 215 216 214 213 213 214 212 211 212 213 211 210 209 208 210 212 211 212 221 227 230 233 237 240 243 247 249 251 253 254 253 252 252 252 253 253 257 262 264 261 259 260 261 262 262 263 265 267 268 270 271 271 272 274 275 274 275 277 277 278 278 278 278 278 276 276 276 274 274 274 274 275 277 277 278 278 278 279 280 281
231 231 229 223 218 215 216 216 214 213 214 215 214 215 215 214 213 213 213 213 215 216 219 223 227 230 234 239 243 247 250 251 251 253 255 255 253 252 253 256 259 263 265 264 262 261 261 262 263 263 263 264 265 266 267 268 268 270 273 275 276 276 277 277 278 278 277 277 275 273 276 279 277 274 274 275 275 274 274 275 273 272 274 276 277
228 230 231 230 227 222 218 217 216 215 215 216 216 217 218 217 217 217 217 217 218 220 222 225 228 231 235 239 241 243 247 247 246 247 250 251 252 253 255 258 261 262 262 261 260 261 261 262 263 264 265 267 267 266 266 266 267 270 273 275 276 276 276 276 277 277 276 276 275 273 275 280 280 277 274 273 273 272 271 271 270 268 268 269 270
225 225 227 228 229 228 225 222 220 220 220 219 218 217 218 219 220 220 221 221 221 221 222 224 225 226 228 231 232 232 234 236 237 241 246 250 253 255 256 258 259 259 259 259 259 260 261 261 262 264 266 268 269 269 269 269 270 271 272 273 274 275 275 274 274 275 274 274 275 276 278 280 281 280 276 274 272 271 269 268 269 269 268 267 268
224 222 222 223 224 226 226 226 224 224 224 224 224 222 220 220 221 222 223 224 224 225 225 225 225 226 226 226 228 231 234 236 238 242 246 250 253 254 253 254 256 257 258 258 260 261 262 263 263 264 265 267 268 268 268 269 270 270 270 271 271 272 271 272 272 273 273 273 274 276 278 280 281 281 279 276 273 272 271 270 270 271 270 269 269
227 225 223 221 221 221 222 224 225 226 227 228 229 229 228 226 224 224 224 225 226 227 228 228 229 229 230 230 232 236 240 243 245 246 247 247 248 248 248 249 251 253 255 255 256 259 261 261 261 261 261 262 262 263 263 264 266 267 268 269 270 270 271 271 272 272 272 272 273 274 276 278 280 280 279 278 276 274 273 273 273 273 272 271 269
228 228 227 224 222 221 221 222 223 225 227 228 230 232 233 233 232 230 230 229 229 229 229 229 230 231 232 233 235 238 241 243 245 247 247 246 244 244 245 246 248 251 252 251 250 252 254 255 255 256 258 259 259 259 260 261 263 264 265 266 268 269 270 271 271 271 271 271 272 274 276 278 280 280 279 280 279 277 276 275 275 274 274 273 271
224 226 227 227 226 225 224 224 224 224 225 227 229 231 233 235 235 235 235 235 234 234 234 233 233 234 236 237 238 239 241 243 244 245 246 246 245 244 244 245 247 250 252 252 252 252 254 255 255 254 256 259 260 261 261 262 262 263 263 264 266 268 269 271 271 272 272 273 274 275 277 278 279 279 280 280 280 279 279 278 278 277 276 275 274
222 222 223 224 226 226 226 226 226 226 226 226 227 229 232 234 236 237 237 237 237 236 237 237 237 238 239 239 241 242 243 244 246 246 247 247 247 247 247 247 247 250 253 254 254 255 257 258 258 258 258 259 262 263 264 265 265 265 265 266 267 269 270 271 271 272 273 273 274 276 277 278 278 279 280 281 281 280 280 280 280 279 278 277 276
222 222 222 221 221 222 223 225 226 227 227 227 228 229 231 232 234 235 237 237 238 238 238 238 239 239 240 241 242 243 244 245 247 248 249 250 250 250 250 250 249 250 252 253 254 254 256 258 260 261 262 262 263 265 266 267 268 268 268 269 270 271 272 272 272 273 274 274 275 276 277 277 278 279 279 280 279 279 279 279 279 279 279 278 278
221 222 223 222 221 220 220 221 223 225 226 227 228 229 231 232 234 236 237 238 239 239 240 240 241 242 242 243 244 245 246 246 247 249 250 251 252 253 254 254 254 254 254 254 254 255 256 258 261 263 264 265 265 266 267 268 269 269 270 270 271 272 273 273 274 274 275 276 276 277 278 278 278 279 279 279 278 278 277 277 277 277 277 277 277
222 223 224 224 224 223 222 222 223 225 226 226 226 226 228 230 233 236 238 240 241 242 243 244 244 245 246 247 248 249 249 249 250 251 252 254 255 256 257 258 259 260 260 259 259 259 259 260 261 262 264 265 266 266 267 268 269 270 271 272 272 273 274 274 275 275 276 276 276 277 277 277 277 277 277 278 278 278 277 277 277 277 277 276 276
225 226 226 227 227 226 226 226 226 228 229 229 229 228 227 228 231 234 237 239 241 243 245 246 247 249 249 250 251 252 253 253 254 254 255 256 257 259 260 261 261 262 262 262 263 263 263 263 263 263 264 265 265 266 267 267 268 268 269 270 270 271 271 271 272 272 273 273 274 274 274 275 275 275 276 276 276 277 277 277 277 277 277 276 276
228 228 229 230 230 230 229 229 229 230 232 233 233 233 232 231 232 234 236 238 241 242 244 246 248 249 251 252 253 254 255 256 256 257 257 258 259 260 260 261 262 262 263 263 264 265 265 265 266 266 266 267 267 267 268 268 268 269 269 269 270 270 271 271 272 272 273 274 274 275 276 276 276 276 277 277 277 277 277 277 277 277 277 276 276
229 229 230 231 233 233 232 232 232 233 234 235 235 236 236 235 236 236 238 240 242 244 245 247 249 251 253 254 255 257 258 260 260 260 260 260 261 262 263 264 265 266 267 268 268 269 269 269 269 269 270 270 270 270 270 270 271 271 272 273 273 273 274 275 275 276 277 277 277 277 278 278 278 278 278 278 279 279 279 279 279 279 278 278 278
230 230 230 231 232 234 235 235 234 235 236 236 237 239 239 240 240 240 241 242 243 245 247 248 249 252 255 257 258 259 260 260 261 261 261 262 263 265 267 269 270 272 272 273 273 273 273 273 273 273 273 273 273 273 273 274 274 274 275 275 276 277 277 278 278 278 278 278 279 278 279 279 279 279 279 279 280 280 280 280 280 280 280 280 280
231 232 232 232 233 234 236 236 237 237 238 239 240 241 243 244 245 245 245 245 245 246 248 249 250 252 255 258 258 257 257 257 258 260 262 264 266 267 269 271 273 274 275 275 275 275 275 275 275 275 275 275 275 275 276 276 276 277 277 278 278 279 279 279 279 279 279 279 279 279 279 279 280 280 281 281 282 282 282 283 283 283 283 283 284
232 233 233 234 235 236 237 238 238 239 240 241 243 245 246 247 248 248 248 247 247 247 248 249 249 252 255 255 254 253 254 255 258 262 264 266 267 268 271 274 276 278 278 278 278 277 277 277 277 277 278 279 279 279 279 279 279 279 279 279 280 279 279 279 279 279 279 279 280 281 281 282 283 284 285 286 287 288 288 289 289 289 289 289 289
232 232 232 233 234 237 239 240 240 241 241 243 244 246 247 249 249 250 249 249 248 249 250 249 249 252 253 252 251 252 255 258 262 265 266 267 269 272 276 278 279 279 280 280 281 281 281 281 281 282 283 284 284 284 284 284 283 282 281 281 280 280 280 280 281 282 283 284 285 287 288 290 291 292 294 294 295 295 295 295 295 294 294 293 293
231 232 232 232 232 234 237 240 242 242 243 244 245 246 247 249 250 250 249 249 249 250 250 249 248 250 251 250 250 253 256 260 264 266 266 269 273 276 276 274 275 278 282 286 288 288 287 286 286 287 288 289 290 289 288 286 284 283 281 281 281 281 283 285 287 289 291 292 293 294 295 296 297 298 298 299 299 299 298 299 298 299 299 299 298
231 232 232 232 231 232 234 237 239 241 243 244 245 247 248 249 250 250 250 249 249 250 250 249 248 248 249 250 252 255 258 262 264 265 268 272 274 271 267 266 271 280 288 292 292 291 290 289 289 289 290 291 292 293 292 289 285 281 279 278 280 284 288 292 294 295 296 297 297 297 298 298 298 299 299 299 300 300 300 301 301 301 301 301 301
232 232 233 232 232 232 234 235 237 239 241 243 244 246 247 247 248 250 251 250 249 249 249 249 248 247 248 250 253 256 260 262 263 264 268 272 269 262 259 263 271 281 290 295 295 293 292 292 292 292 291 291 292 293 294 293 288 282 278 280 286 291 294 295 296 297 298 298 298 298 298 298 298 298 299 299 299 300 301 301 301 301 301 300 300
233 233 233 234 234 235 236 237 237 238 239 241 242 244 245 244 247 251 253 252 251 250 249 249 249 248 249 251 254 256 258 260 261 264 268 269 262 256 257 264 271 278 286 293 297 297 296 295 295 295 295 294 293 292 292 291 289 285 284 286 289 292 294 295 296 296 296 296 296 297 297 297 297 297 297 298 298 298 299 299 300 300 300 300 299
234 234 234 235 236 237 238 239 239 239 239 239 240 243 244 246 249 253 254 254 254 253 252 250 250 250 252 253 254 256 257 259 262 265 268 264 256 253 257 264 270 277 283 288 293 298 300 299 298 297 296 296 295 294 293 293 292 290 290 291 292 293 294 294 295 295 295 295 295 295 296 296 296 296 296 296 296 295 295 295 296 297 297 298 298
235 236 236 236 237 237 238 239 241 242 242 241 241 241 243 246 250 253 254 254 254 253 253 252 252 252 253 253 254 255 257 259 263 266 265 258 253 254 259 264 270 276 281 284 289 294 297 298 299 299 297 296 295 294 293 294 294 293 293 293 293 294 295 296 296 296 296 296 296 296 296 296 296 296 296 295 294 293 293 292 292 292 293 294 295
236 238 238 237 237 237 238 239 240 242 244 245 245 243 243 246 249 252 253 254 254 254 254 254 254 254 253 253 253 255 257 260 263 264 260 254 252 255 259 264 269 274 278 283 289 294 295 296 298 300 299 298 296 295 293 292 292 292 292 293 293 294 296 296 296 296 296 296 295 295 295 296 297 298 297 295 293 292 291 290 289 289 289 290 291
236 239 240 239 237 236 236 236 237 241 244 247 249 249 248 248 250 251 252 253 254 255 256 256 255 254 254 253 254 255 256 259 262 261 254 250 251 255 259 264 268 273 278 283 289 293 294 295 297 299 299 298 297 295 293 292 292 292 293 294 295 295 295 295 295 295 296 296 296 295 295 296 298 300 299 296 294 293 291 290 290 289 289 289 289
236 238 239 239 237 235 233 232 233 237 241 245 249 251 253 253 253 253 253 253 254 254 255 254 254 254 254 254 254 255 256 257 258 256 252 251 253 256 260 264 268 273 279 284 288 290 292 293 296 297 297 296 295 294 292 291 292 292 294 295 295 295 295 294 293 294 296 298 298 297 296 296 299 301 300 298 296 295 294 293 292 291 291 291 291
237 238 239 238 237 235 233 232 232 235 238 242 246 250 252 254 254 254 254 253 253 252 252 252 253 253 253 253 254 255 257 257 257 254 253 253 255 257 260 263 268 273 278 281 284 286 288 290 293 294 295 294 293 292 290 290 291 292 293 294 295 295 295 294 293 293 295 297 298 297 296 297 300 302 301 298 296 296 295 295 294 294 293 293 293
238 238 238 238 237 235 233 233 233 235 237 241 244 247 250 251 252 253 252 252 251 251 251 252 253 253 252 252 253 255 257 258 257 255 253 253 255 257 259 262 266 271 276 279 281 283 285 288 290 292 292 292 292 291 290 290 291 292 294 295 295 296 295 294 292 292 293 295 296 296 295 297 300 300 298 295 294 295 295 295 295 295 295 295 295
Height
10894 10898 10903 10906 10910 10914 10917 10921 10925 10928 10931 10933 10936 10939 10942 10945 10948 10950 10952 10954 10956 10957 10959 10961 10962 10963 10963 10964 10964 10963 10964 10964 10964 10964 10964 10963 10963 10962 10961 10961 10960 10959 10958 10956 10956 10956 10955 10955 10956 10957 10957 10958 10959 10960 10962 10963 10964 10965 10966 10968 10969 10970 10972 10973 10974 10975 10976 10977 10978 10978 10979 10980 10980 10981 10981 10982 10983 10983 10984 10984 10984 10984 10985 10985 10986
10888 10893 10897 10901 10905 10909 10913 10917 10922 10925 10928 10931 10934 10937 10940 10942 10946 10949 10951 10952 10954 10956 10958 10959 10960 10961 10962 10962 10962 10962 10962 10963 10962 10963 10963 10963 10963 10962 10961 10960 10959 10958 10957 10955 10955 10955 10954 10954 10954 10955 10956 10956 10957 10958 10959 10961 10962 10963 10964 10965 10966 10968 10969 10970 10971 10972 10973 10974 10975 10976 10976 10977 10977 10978 10978 10979 10980 10980 10981 10981 10981 10982 10982 10983 10984
10883 10888 10892 10896 10901 10905 10909 10913 10918 10921 10925 10928 10931 10934 10937 10940 10944 10947 10949 10951 10952 10954 10956 10957 10958 10959 10960 10960 10961 10960 10961 10961 10961 10961 10961 10962 10962 10962 10961 10960 10959 10957 10956 10955 10954 10954 10953 10953 10954 10954 10954 10955 10955 10956 10957 10959 10960 10961 10962 10963 10964 10965 10966 10967 10968 10969 10970 10971 10972 10973 10973 10974 10974 10975 10975 10976 10976 10977 10978 10978 10979 10979 10979 10980 10981
10879 10883 10888 10892 10897 10901 10904 10908 10913 10918 10921 10925 10928 10932 10935 10938 10941 10944 10947 10949 10950 10952 10954 10956 10956 10957 10957 10958 10958 10959 10959 10959 10959 10959 10960 10960 10961 10961 10961 10960 10959 10957 10956 10955 10954 10954 10953 10953 10953 10953 10953 10954 10954 10955 10955 10956 10957 10958 10959 10960 10961 10962 10963 10964 10965 10966 10967 10968 10969 10969 10970 10971 10971 10972 10972 10973 10973 10974 10975 10975 10975 10976 10976 10977 10977
10874 10879 10883 10887 10892 10896 10900 10904 10909 10913 10917 10921 10925 10928 10932 10936 10938 10941 10944 10946 10947 10949 10952 10954 10953 10954 10955 10955 10956 10956 10956 10956 10957 10957 10958 10958 10959 10960 10960 10960 10959 10958 10956 10955 10954 10954 10953 10953 10953 10953 10953 10953 10953 10953 10954 10954 10955 10955 10956 10957 10958 10959 10960 10960 10961 10962 10962 10964 10965 10966 10966 10967 10968 10968 10969 10970 10970 10971 10971 10972 10972 10972 10972 10973 10974
10869 10874 10878 10883 10887 10892 10897 10901 10905 10909 10913 10917 10921 10925 10929 10933 10936 10937 10939 10942 10943 10946 10949 10951 10951 10951 10952 10953 10954 10954 10953 10953 10954 10955 10955 10956 10957 10958 10959 10959 10958 10957 10956 10955 10954 10954 10954 10953 10953 10953 10952 10952 10952 10952 10952 10952 10952 10952 10953 10953 10954 10955 10956 10957 10958 10958 10959 10960 10961 10961 10962 10963 10964 10965 10966 10966 10967 10967 10968 10968 10968 10968 10969 10970 10970
10865 10869 10874 10878 10883 10888 10893 10897 10901 10905 10909 10913 10917 10920 10925 10930 10933 10934 10935 10937 10939 10941 10944 10946 10947 10949 10949 10950 10950 10950 10950 10950 10950 10951 10952 10953 10955 10956 10957 10957 10957 10956 10956 10955 10954 10954 10953 10953 10953 10952 10952 10952 10951 10951 10951 10950 10950 10950 10950 10950 10951 10951 10952 10952 10953 10954 10955 10956 10956 10957 10958 10959 10960 10961 10962 10963 10963 10964 10965 10965 10964 10965 10965 10966 10966
10861 10865 10870 10874 10879 10884 10889 10893 10897 10901 10905 10909 10912 10916 10920 10925 10929 10931 10932 10934 10935 10937 10939 10941 10943 10946 10946 10946 10947 10948 10947 10945 10946 10947 10949 10950 10951 10953 10955 10955 10955 10955 10955 10955 10954 10953 10952 10952 10952 10952 10951 10951 10950 10950 10949 10949 10948 10948 10948 10948 10948 10948 10948 10948 10949 10949 10950 10951 10952 10953 10953 10954 10955 10956 10957 10958 10959 10960 10960 10961 10961 10961 10961 10962 10962
10857 10862 10866 10871 10875 10880 10885 10889 10893 10897 10901 10904 10908 10912 10917 10922 10926 10928 10929 10930 10932 10933 10935 10937 10940 10942 10943 10943 10943 10944 10943 10942 10943 10944 10944 10946 10948 10950 10952 10953 10954 10954 10954 10954 10953 10953 10952 10951 10951 10950 10950 10950 10949 10949 10948 10948 10947 10947 10946 10946 10946 10945 10945 10945 10945 10945 10945 10946 10947 10948 10949 10949 10950 10951 10952 10953 10954 10955 10955 10956 10956 10956 10957 10957 10958
10855 10859 10863 10867 10872 10876 10880 10884 10889 10892 10896 10899 10904 10909 10914 10918 10922 10924 10925 10926 10928 10929 10932 10935 10937 10939 10939 10939 10939 10940 10939 10940 10940 10941 10941 10943 10945 10947 10950 10951 10952 10953 10953 10953 10953 10952 10952 10951 10950 10949 10949 10948 10948 10947 10947 10946 10946 10946 10945 10945 10944 10943 10943 10942 10942 10941 10941 10942 10942 10943 10944 10944 10945 10946 10947 10947 10948 10949 10950 10950 10951 10951 10952 10952 10953
10853 10857 10860 10864 10868 10872 10876 10880 10884 10888 10891 10895 10900 10905 10910 10914 10917 10919 10920 10922 10924 10926 10928 10932 10934 10935 10935 10935 10936 10936 10937 10937 10938 10940 10941 10943 10944 10945 10947 10949 10950 10951 10951 10951 10951 10951 10951 10950 10949 10948 10947 10947 10946 10946 10945 10944 10944 10944 10944 10943 10943 10942 10941 10940 10939 10939 10939 10939 10939 10939 10940 10940 10941 10942 10942 10943 10943 10944 10945 10945 10945 10946 10948 10947 10947
10852 10854 10858 10861 10864 10867 10871 10875 10879 10883 10887 10891 10895 10900 10904 10906 10908 10912 10915 10917 10920 10922 10925 10928 10930 10930 10931 10932 10933 10934 10934 10935 10936 10938 10940 10941 10942 10943 10945 10946 10947 10948 10948 10948 10949 10949 10949 10948 10948 10947 10946 10945 10945 10944 10944 10943 10942 10942 10941 10941 10941 10940 10939 10938 10937 10937 10936 10936 10936 10936 10937 10937 10937 10938 10938 10939 10939 10939 10939 10940 10940 10941 10942 10942 10942
10850 10852 10855 10858 10860 10863 10867 10871 10874 10878 10882 10886 10890 10894 10897 10899 10902 10906 10909 10913 10916 10918 10921 10924 10925 10926 10928 10929 10930 10931 10932 10933 10934 10935 10937 10938 10939 10940 10941 10943 10944 10945 10945 10946 10946 10946 10946 10946 10945 10945 10944 10944 10943 10942 10942 10941 10940 10940 10939 10939 10938 10938 10937 10937 10936 10935 10934 10933 10933 10933 10933 10934 10934 10934 10934 10935 10935 10934 10934 10935 10936 10936 10937 10936 10936
10848 10850 10852 10855 10857 10860 10863 10867 10870 10874 10878 10882 10885 10889 10893 10896 10899 10902 10905 10908 10911 10913 10916 10919 10921 10922 10924 10926 10927 10928 10929 10930 10931 10932 10934 10935 10937 10937 10938 10939 10940 10941 10942 10943 10944 10944 10944 10943 10943 10942 10942 10942 10941 10940 10940 10939 10939 10938 10937 10937 10936 10936 10935 10934 10934 10933 10932 10931 10930 10929 10930 10930 10930 10929 10930 10931 10931 10930 10930 10930 10930 10930 10930 10929 10928
10845 10848 10850 10852 10854 10857 10860 10863 10866 10870 10874 10878 10881 10885 10889 10892 10895 10898 10901 10903 10906 10908 10911 10914 10916 10918 10920 10922 10923 10925 10926 10927 10928 10929 10931 10932 10933 10934 10935 10936 10937 10938 10939 10940 10941 10941 10940 10940 10939 10939 10939 10939 10939 10939 10938 10938 10937 10936 10935 10935 10934 10934 10933 10932 10932 10931 10930 10929 10927 10926 10927 10927 10927 10926 10926 10927 10927 10927 10927 10926 10925 10925 10925 10923 10922
10843 10845 10848 10850 10852 10854 10857 10860 10863 10866 10870 10874 10877 10881 10884 10888 10891 10894 10897 10899 10901 10904 10906 10909 10911 10913 10915 10917 10919 10920 10922 10923 10925 10926 10928 10929 10930 10931 10932 10933 10934 10935 10936 10937 10937 10937 10937 10937 10936 10936 10936 10936 10936 10936 10936 10936 10935 10933 10932 10932 10932 10932 10931 10930 10930 10929 10928 10926 10925 10925 10925 10925 10925 10925 10924 10924 10924 10924 10925 10924 10923 10923 10922 10920 10917
10842 10844 10846 10848 10850 10852 10855 10857 10860 10863 10867 10870 10874 10877 10880 10884 10887 10890 10893 10895 10898 10900 10903 10905 10907 10909 10910 10912 10914 10916 10918 10920 10921 10923 10924 10925 10926 10927 10929 10930 10931 10931 10932 10933 10933 10933 10933 10933 10933 10933 10933 10932 10932 10933 10933 10932 10932 10931 10930 10929 10930 10930 10929 10928 10928 10927 10926 10924 10923 10923 10923 10922 10923 10923 10923 10922 10922 10922 10923 10921 10920 10920 10918 10916 10914
10840 10842 10844 10847 10849 10851 10853 10855 10858 10861 10864 10867 10870 10874 10877 10881 10884 10887 10890 10892 10895 10897 10900 10902 10904 10905 10906 10908 10910 10912 10914 10916 10917 10918 10919 10921 10922 10923 10924 10925 10926 10927 10928 10929 10930 10930 10930 10930 10929 10928 10928 10928 10928 10928 10929 10928 10928 10928 10927 10927 10927 10927 10926 10926 10925 10923 10923 10922 10921 10921 10920 10920 10920 10920 10920 10920 10920 10920 10919 10918 10916 10916 10914 10912 10910
10837 10840 10842 10845 10847 10849 10851 10853 10856 10858 10861 10864 10868 10871 10874 10878 10881 10884 10887 10890 10892 10895 10896 10899 10900 10901 10902 10904 10906 10908 10910 10912 10912 10913 10915 10916 10917 10918 10919 10921 10922 10923 10923 10924 10925 10926 10926 10925 10925 10924 10923 10923 10923 10924 10923 10923 10924 10924 10925 10924 10923 10922 10922 10922 10921 10919 10919 10918 10918 10917 10917 10916 10916 10916 10916 10917 10917 10917 10916 10915 10914 10912 10911 10909 10906
10835 10837 10839 10842 10844 10847 10849 10851 10853 10856 10858 10861 10864 10867 10871 10875 10878 10882 10885 10887 10890 10892 10894 10896 10897 10898 10899 10901 10903 10905 10906 10907 10907 10908 10909 10910 10911 10913 10914 10915 10916 10917 10918 10919 10920 10920 10920 10920 10919 10919 10917 10917 10918 10918 10918 10918 10919 10920 10921 10921 10920 10918 10917 10917 10916 10915 10915 10914 10914 10914 10913 10913 10913 10912 10912 10913 10913 10914 10913 10912 10911 10910 10908 10906 10903
10832 10834 10837 10839 10842 10844 10846 10849 10851 10853 10855 10858 10860 10863 10867 10871 10874 10879 10882 10884 10886 10889 10891 10893 10893 10893 10895 10898 10899 10901 10902 10902 10903 10904 10905 10906 10907 10908 10909 10910 10911 10912 10913 10914 10914 10914 10914 10914 10914 10913 10912 10912 10912 10912 10912 10912 10913 10913 10914 10915 10914 10913 10912 10911 10911 10910 10910 10910 10910 10910 10910 10910 10911 10910 10910 10910 10910 10910 10910 10910 10909 10908 10907 10905 10902
10829 10831 10834 10836 10839 10841 10844 10846 10847 10849 10851 10854 10856 10859 10862 10866 10869 10873 10876 10878 10880 10883 10886 10887 10887 10888 10891 10893 10895 10896 10897 10898 10898 10898 10899 10901 10902 10903 10904 10905 10906 10907 10908 10908 10908 10908 10909 10909 10908 10906 10906 10906 10906 10906 10906 10906 10907 10907 10907 10907 10907 10906 10905 10905 10905 10905 10905 10906 10907 10906 10905 10906 10907 10906 10906 10906 10905 10906 10906 10907 10908 10908 10906 10904 10901
10825 10827 10830 10833 10835 10838 10840 10842 10844 10846 10848 10850 10852 10855 10857 10860 10864 10867 10870 10872 10874 10877 10879 10881 10883 10885 10886 10888 10890 10891 10891 10891 10891 10891 10892 10894 10895 10897 10898 10899 10899 10900 10901 10901 10902 10902 10903 10902 10901 10900 10900 10900 10899 10899 10900 10900 10900 10900 10900 10900 10900 10899 10898 10898 10898 10898 10898 10899 10900 10900 10899 10900 10900 10900 10899 10899 10899 10900 10900 10901 10903 10905 10904 10901 10898
10821 10823 10825 10828 10830 10833 10836 10838 10840 10842 10844 10846 10848 10851 10853 10856 10858 10861 10864 10867 10869 10872 10874 10877 10879 10881 10881 10883 10885 10886 10885 10883 10883 10884 10886 10888 10889 10890 10891 10892 10893 10894 10894 10895 10895 10896 10896 10895 10894 10893 10893 10893 10893 10893 10893 10893 10894 10894 10894 10893 10893 10893 10892 10891 10891 10890 10890 10890 10891 10891 10891 10892 10892 10892 10891 10891 10892 10892 10892 10893 10894 10896 10897 10894 10891
10815 10817 10820 10822 10824 10827 10830 10833 10835 10837 10839 10842 10844 10846 10849 10851 10854 10856 10858 10861 10864 10866 10869 10872 10874 10875 10875 10877 10879 10879 10878 10877 10876 10878 10879 10881 10883 10884 10885 10885 10886 10887 10887 10888 10888 10888 10888 10887 10887 10887 10887 10886 10886 10886 10886 10886 10886 10886 10887 10887 10886 10885 10885 10884 10883 10883 10882 10882 10882 10882 10882 10882 10883 10883 10882 10882 10883 10884 10883 10884 10885 10886 10887 10886 10883
10810 10812 10814 10815 10818 10821 10824 10827 10830 10832 10834 10837 10839 10842 10844 10846 10848 10851 10853 10855 10858 10860 10863 10866 10867 10867 10869 10871 10871 10870 10869 10869 10870 10872 10874 10875 10877 10878 10879 10879 10879 10879 10880 10880 10880 10880 10880 10880 10880 10880 10880 10879 10879 10879 10879 10879 10878 10878 10879 10879 10878 10878 10878 10877 10876 10876 10875 10875 10875 10874 10873 10874 10874 10874 10873 10874 10874 10874 10874 10875 10875 10876 10876 10877 10876
10807 10808 10809 10810 10812 10814 10817 10820 10823 10826 10829 10831 10834 10836 10839 10841 10843 10846 10848 10850 10852 10854 10857 10859 10860 10861 10863 10864 10864 10863 10863 10864 10865 10867 10869 10870 10872 10873 10873 10874 10874 10872 10871 10871 10872 10872 10872 10872 10872 10872 10872 10872 10872 10872 10872 10872 10871 10871 10871 10871 10871 10870 10870 10870 10869 10869 10868 10867 10867 10866 10866 10865 10865 10865 10864 10864 10864 10864 10864 10865 10866 10866 10866 10866 10866
10805 10806 10806 10807 10808 10810 10812 10814 10817 10820 10823 10826 10828 10830 10833 10836 10838 10840 10843 10845 10847 10849 10851 10853 10854 10856 10857 10858 10859 10859 10859 10859 10860 10861 10863 10864 10866 10867 10867 10868 10868 10864 10861 10862 10864 10865 10864 10864 10864 10864 10864 10864 10864 10864 10865 10865 10865 10864 10864 10864 10864 10863 10863 10862 10862 10861 10861 10860 10859 10858 10857 10857 10856 10856 10855 10855 10854 10854 10854 10854 10855 10855 10855 10854 10855
10802 10803 10804 10806 10807 10808 10810 10811 10813 10815 10817 10820 10823 10825 10827 10830 10832 10835 10837 10839 10841 10843 10845 10847 10849 10850 10851 10852 10853 10854 10855 10855 10855 10856 10857 10858 10859 10860 10861 10862 10861 10856 10852 10854 10857 10857 10855 10854 10854 10856 10856 10856 10856 10857 10858 10858 10857 10857 10857 10856 10856 10855 10855 10855 10854 10853 10852 10851 10850 10849 10849 10848 10847 10847 10846 10846 10845 10844 10843 10843 10844 10844 10844 10843 10843
10798 10800 10801 10803 10804 10806 10808 10809 10810 10812 10813 10815 10817 10820 10822 10824 10826 10829 10831 10832 10834 10836 10838 10840 10842 10844 10845 10846 10847 10848 10849 10850 10850 10850 10851 10852 10853 10853 10854 10855 10854 10850 10846 10847 10850 10850 10848 10845 10844 10846 10848 10848 10848 10848 10849 10849 10849 10848 10848 10848 10847 10847 10846 10846 10845 10845 10844 10843 10842 10841 10840 10838 10838 10837 10837 10836 10835 10834 10833 10833 10833 10833 10832 10832 10832
10795 10796 10798 10799 10800 10802 10804 10805 10806 10808 10809 10811 10812 10814 10817 10819 10821 10823 10824 10826 10828 10830 10832 10833 10835 10837 10838 10839 10840 10842 10843 10844 10844 10844 10845 10845 10846 10847 10847 10847 10847 10845 10842 10841 10842 10842 10841 10839 10838 10838 10839 10840 10840 10840 10840 10840 10840 10839 10839 10839 10838 10838 10838 10837 10836 10836 10835 10834 10833 10832 10830 10829 10828 10828 10827 10826 10825 10823 10822 10822 10822 10822 10821 10820 10820
10791 10793 10795 10796 10797 10798 10799 10801 10802 10803 10805 10806 10808 10809 10811 10813 10815 10817 10819 10820 10822 10823 10825 10827 10828 10830 10831 10832 10833 10834 10836 10837 10837 10837 10838 10838 10839 10839 10839 10840 10839 10838 10837 10836 10835 10835 10834 10834 10833 10832 10831 10832 10832 10832 10832 10832 10831 10831 10830 10830 10830 10829 10829 10828 10827 10826 10825 10825 10823 10822 10821 10820 10819 10818 10817 10816 10815 10813 10812 10811 10811 10810 10809 10809 10808
10788 10789 10791 10792 10794 10795 10796 10797 10798 10799 10801 10802 10803 10805 10806 10808 10810 10811 10813 10814 10816 10817 10819 10820 10821 10823 10824 10825 10826 10827 10828 10829 10830 10831 10831 10831 10832 10832 10832 10832 10832 10831 10831 10830 10829 10828 10828 10827 10827 10826 10825 10825 10824 10824 10824 10823 10823 10822 10821 10821 10821 10820 10819 10818 10817 10816 10815 10814 10813 10812 10811 10810 10809 10807 10806 10805 10804 10802 10801 10799 10798 10798 10797 10796 10795
10783 10785 10786 10788 10790 10791 10793 10794 10795 10796 10797 10799 10800 10801 10802 10804 10805 10807 10808 10809 10811 10812 10813 10814 10815 10817 10818 10819 10819 10820 10821 10822 10823 10824 10824 10824 10825 10825 10825 10825 10824 10824 10823 10823 10822 10821 10821 10820 10819 10818 10818 10817 10817 10816 10815 10815 10814 10813 10813 10812 10811 10810 10809 10808 10807 10806 10805 10804 10803 10802 10801 10800 10798 10797 10796 10794 10793 10791 10789 10788 10786 10785 10784 10783 10782
10779 10780 10782 10783 10785 10787 10789 10790 10791 10792 10794 10795 10796 10797 10799 10800 10801 10802 10804 10805 10806 10807 10808 10809 10810 10811 10812 10813 10813 10814 10814 10815 10816 10817 10817 10818 10818 10818 10818 10817 10817 10816 10816 10815 10815 10814 10813 10812 10811 10810 10810 10809 10808 10807 10806 10806 10805 10804 10803 10803 10802 10801 10800 10798 10797 10796 10795 10794 10793 10792 10791 10789 10788 10786 10785 10783 10782 10780 10778 10777 10775 10773 10772 10771 10770
10774 10775 10777 10779 10780 10782 10784 10785 10787 10788 10790 10791 10792 10793 10795 10796 10797 10798 10799 10800 10801 10802 10803 10804 10805 10806 10807 10807 10808 10808 10808 10809 10810 10810 10811 10811 10811 10811 10811 10810 10810 10809 10809 10808 10807 10806 10805 10804 10804 10803 10802 10801 10800 10798 10798 10797 10796 10795 10794 10793 10792 10791 10790 10789 10788 10787 10785 10784 10783 10781 10780 10779 10777 10776 10774 10773 10771 10769 10767 10766 10764 10762 10761 10759 10758
10768 10770 10772 10773 10775 10777 10779 10780 10782 10784 10785 10786 10788 10789 10790 10791 10792 10793 10794 10795 10796 10797 10798 10799 10800 10801 10801 10802 10802 10802 10803 10803 10804 10804 10805 10805 10805 10805 10805 10804 10804 10803 10802 10801 10800 10799 10798 10797 10796 10795 10794 10793 10792 10791 10790 10789 10788 10787 10786 10785 10784 10783 10782 10780 10779 10778 10776 10775 10773 10772 10770 10769 10767 10766 10764 10763 10761 10759 10757 10756 10754 10752 10750 10749 10748
10762 10764 10766 10767 10769 10771 10774 10775 10777 10778 10780 10781 10783 10784 10785 10786 10787 10788 10789 10790 10791 10791 10792 10793 10795 10796 10796 10796 10797 10797 10798 10798 10799 10799 10800 10800 10800 10799 10799 10798 10797 10797 10796 10794 10793 10792 10791 10790 10788 10787 10786 10785 10784 10783 10782 10781 10780 10779 10778 10777 10776 10775 10774 10772 10771 10769 10768 10766 10765 10763 10762 10760 10759 10757 10756 10754 10753 10751 10749 10747 10745 10743 10742 10740 10738
10756 10758 10760 10761 10764 10766 10768 10770 10771 10773 10775 10776 10778 10779 10780 10781 10782 10783 10783 10784 10785 10786 10787 10788 10790 10790 10791 10791 10792 10792 10793 10794 10794 10795 10794 10794 10794 10793 10793 10792 10791 10790 10789 10787 10786 10785 10784 10782 10781 10780 10779 10778 10777 10776 10775 10774 10773 10772 10771 10770 10769 10767 10766 10765 10763 10762 10761 10759 10758 10756 10755 10753 10752 10750 10749 10747 10746 10744 10742 10740 10738 10736 10734 10732 10730
10750 10752 10753 10755 10758 10760 10762 10764 10766 10768 10769 10771 10772 10773 10774 10775 10776 10777 10778 10779 10780 10781 10782 10783 10784 10785 10785 10786 10787 10788 10788 10789 10789 10790 10789 10789 10788 10788 10787 10786 10785 10784 10782 10781 10780 10779 10777 10776 10775 10774 10773 10772 10771 10769 10768 10767 10766 10765 10764 10763 10762 10761 10759 10758 10757 10756 10754 10753 10752 10750 10749 10747 10746 10744 10743 10741 10739 10737 10735 10733 10731 10730 10728 10726 10724
10744 10745 10747 10749 10752 10755 10756 10758 10760 10762 10764 10765 10766 10767 10768 10769 10770 10771 10772 10773 10774 10775 10777 10778 10779 10780 10780 10781 10782 10783 10783 10784 10784 10784 10784 10784 10783 10783 10782 10781 10780 10779 10777 10776 10775 10774 10772 10771 10770 10769 10768 10767 10766 10764 10763 10762 10760 10759 10758 10757 10756 10755 10754 10753 10752 10750 10749 10748 10747 10745 10744 10742 10741 10739 10738 10736 10734 10732 10730 10728 10726 10724 10722 10720 10718
10737 10739 10741 10743 10746 10749 10751 10753 10755 10756 10758 10759 10760 10761 10763 10764 10765 10766 10767 10768 10769 10770 10771 10772 10774 10774 10775 10776 10777 10778 10778 10779 10779 10779 10778 10778 10778 10778 10777 10776 10775 10774 10773 10772 10771 10770 10769 10767 10766 10765 10764 10763 10761 10760 10758 10757 10755 10754 10753 10752 10751 10750 10749 10748 10747 10746 10745 10743 10742 10741 10739 10738 10736 10734 10733 10731 10729 10727 10725 10723 10720 10718 10716 10714 10712
10730 10732 10735 10737 10739 10742 10744 10747 10749 10751 10752 10754 10755 10756 10757 10759 10760 10760 10761 10762 10763 10764 10765 10767 10768 10769 10769 10770 10771 10772 10773 10773 10773 10773 10773 10773 10773 10773 10772 10771 10770 10769 10768 10768 10767 10766 10765 10764 10762 10761 10760 10759 10757 10756 10755 10753 10752 10750 10749 10749 10748 10747 10746 10744 10743 10742 10740 10739 10737 10736 10734 10732 10731 10729 10727 10725 10723 10721 10719 10717 10715 10713 10711 10709 10707
10723 10726 10728 10731 10733 10735 10738 10740 10742 10744 10746 10748 10749 10751 10752 10754 10755 10755 10756 10756 10757 10758 10760 10761 10762 10763 10764 10765 10766 10767 10768 10768 10768 10768 10768 10768 10768 10767 10766 10765 10765 10764 10764 10763 10763 10762 10761 10760 10759 10757 10756 10755 10753 10752 10751 10750 10748 10747 10746 10745 10744 10743 10741 10740 10738 10737 10735 10734 10732 10730 10728 10727 10725 10722 10720 10718 10716 10715 10712 10710 10708 10706 10704 10703 10701
10716 10719 10722 10724 10727 10729 10731 10733 10735 10737 10739 10741 10743 10745 10746 10748 10749 10750 10751 10752 10752 10753 10754 10755 10757 10757 10758 10759 10760 10761 10762 10762 10762 10762 10762 10762 10762 10761 10761 10760 10759 10759 10759 10759 10758 10758 10757 10756 10754 10753 10752 10751 10749 10748 10747 10746 10745 10743 10742 10741 10739 10738 10736 10735 10733 10732 10730 10728 10726 10724 10722 10720 10718 10716 10714 10711 10709 10707 10705 10703 10701 10699 10697 10695 10693
10709 10712 10715 10718 10720 10722 10724 10726 10728 10730 10732 10734 10737 10739 10740 10742 10743 10745 10746 10746 10747 10748 10749 10750 10751 10752 10753 10753 10754 10755 10756 10756 10756 10756 10756 10756 10756 10755 10755 10755 10754 10754 10754 10753 10753 10753 10752 10751 10750 10749 10748 10746 10745 10744 10743 10741 10740 10739 10737 10736 10734 10733 10731 10729 10727 10726 10724 10722 10720 10718 10716 10714 10711 10709 10707 10704 10702 10700 10698 10696 10694 10692 10690 10688 10686
10703 10706 10708 10711 10714 10716 10718 10720 10722 10724 10725 10727 10729 10732 10734 10735 10737 10738 10740 10741 10742 10743 10744 10745 10745 10746 10747 10747 10748 10749 10750 10750 10750 10750 10750 10750 10750 10750 10749 10749 10749 10748 10748 10748 10747 10747 10746 10745 10744 10743 10742 10741 10740 10739 10737 10736 10735 10733 10732 10730 10729 10727 10725 10723 10722 10720 10718 10716 10714 10712 10709 10707 10705 10702 10699 10697 10695 10692 10690 10688 10687 10685 10682 10680 10678
10697 10700 10702 10704 10707 10709 10711 10713 10716 10718 10719 10720 10722 10724 10726 10728 10730 10732 10733 10735 10736 10737 10738 10739 10739 10740 10740 10741 10742 10743 10743 10743 10743 10744 10744 10744 10744 10744 10743 10743 10743 10742 10742 10741 10741 10740 10740 10739 10738 10737 10736 10735 10734 10733 10731 10730 10729 10727 10725 10724 10722 10721 10719 10717 10715 10713 10711 10710 10707 10705 10703 10700 10698 10695 10692 10689 10687 10684 10682 10680 10678 10677 10675 10672 10670
10692 10694 10695 10697 10700 10702 10705 10707 10709 10711 10713 10714 10716 10717 10719 10721 10723 10724 10726 10728 10730 10731 10731 10732 10733 10734 10734 10734 10735 10736 10736 10736 10737 10737 10737 10737 10737 10737 10737 10737 10736 10736 10735 10735 10734 10734 10733 10732 10732 10731 10730 10728 10727 10726 10724 10723 10722 10720 10719 10717 10716 10714 10712 10710 10709 10707 10705 10703 10700 10698 10695 10693 10690 10687 10684 10681 10679 10676 10674 10672 10669 10668 10666 10664 10662
10685 10687 10688 10690 10692 10695 10697 10699 10702 10704 10706 10708 10709 10711 10712 10714 10716 10717 10719 10721 10722 10723 10724 10725 10726 10727 10727 10728 10728 10729 10729 10729 10730 10730 10730 10730 10730 10730 10730 10730 10729 10729 10728 10728 10727 10727 10726 10725 10725 10724 10723 10721 10720 10719 10717 10716 10715 10714 10712 10711 10709 10707 10705 10703 10701 10699 10697 10695 10693 10690 10688 10685 10682 10680 10677 10674 10671 10668 10666 10663 10661 10659 10657 10655 10653
10676 10678 10680 10683 10685 10687 10690 10692 10695 10697 10699 10701 10703 10704 10706 10707 10709 10710 10712 10714 10715 10716 10717 10718 10719 10720 10720 10721 10721 10721 10722 10722 10723 10723 10723 10723 10723 10723 10722 10722 10722 10721 10721 10721 10720 10720 10719 10718 10718 10717 10715 10714 10713 10711 10710 10708 10707 10706 10705 10703 10702 10700 10698 10695 10693 10691 10689 10687 10685 10682 10680 10678 10675 10672 10670 10667 10665 10662 10659 10657 10654 10652 10650 10648 10645